TimeMDT,TemperatureF,Dew PointF,Humidity,Sea Level PressureIn,VisibilityMPH,Wind Direction,Wind SpeedMPH,Gust SpeedMPH,PrecipitationIn,Events,Conditions,WindDirDegrees,DateUTC
12:15 AM,44.6,42.8,93,30.27,10.0,NNW,10.4,-,N/A,,Clear,330,2012-10-01 06:15:00
12:35 AM,44.6,41.0,87,30.28,10.0,NW,10.4,-,N/A,,Clear,320,2012-10-01 06:35:00
12:55 AM,44.6,41.0,87,30.28,10.0,NW,10.4,-,N/A,,Clear,320,2012-10-01 06:55:00
1:15 AM,44.6,39.2,81,30.28,10.0,NW,10.4,-,N/A,,Clear,320,2012-10-01 07:15:00
1:35 AM,44.6,41.0,87,30.28,10.0,NW,10.4,-,N/A,,Clear,320,2012-10-01 07:35:00
2:35 AM,41.0,37.4,87,30.29,10.0,West,8.1,-,N/A,,Clear,280,2012-10-01 08:35:00
2:55 AM,41.0,37.4,87,30.29,10.0,WNW,9.2,-,N/A,,Clear,290,2012-10-01 08:55:00
3:15 AM,39.2,35.6,87,30.29,10.0,WNW,6.9,-,N/A,,Clear,300,2012-10-01 09:15:00
3:35 AM,37.4,35.6,93,30.30,10.0,WNW,4.6,-,N/A,,Clear,290,2012-10-01 09:35:00
3:55 AM,39.2,35.6,87,30.30,10.0,NW,5.8,-,N/A,,Clear,310,2012-10-01 09:55:00
4:15 AM,37.4,33.8,87,30.29,10.0,WNW,8.1,-,N/A,,Clear,300,2012-10-01 10:15:00
4:35 AM,37.4,33.8,87,30.29,10.0,WNW,5.8,-,N/A,,Clear,300,2012-10-01 10:35:00
4:55 AM,39.2,35.6,87,30.29,10.0,NW,4.6,-,N/A,,Clear,310,2012-10-01 10:55:00
5:15 AM,39.2,35.6,87,30.30,10.0,Calm,Calm,-,N/A,,Clear,0,2012-10-01 11:15:00
5:35 AM,35.6,32.0,87,30.30,10.0,South,5.8,-,N/A,,Clear,170,2012-10-01 11:35:00
5:55 AM,35.6,33.8,93,30.30,10.0,SSW,4.6,-,N/A,,Clear,200,2012-10-01 11:55:00
6:15 AM,35.6,33.8,93,30.29,10.0,WSW,5.8,-,N/A,,Clear,240,2012-10-01 12:15:00
6:35 AM,35.6,30.2,81,30.29,10.0,WSW,6.9,-,N/A,,Clear,240,2012-10-01 12:35:00
6:55 AM,33.8,30.2,87,30.29,10.0,West,4.6,-,N/A,,Clear,260,2012-10-01 12:55:00
7:15 AM,33.8,30.2,87,30.30,10.0,SW,5.8,-,N/A,,Clear,220,2012-10-01 13:15:00
7:35 AM,35.6,32.0,87,30.30,10.0,SW,6.9,-,N/A,,Clear,230,2012-10-01 13:35:00
7:55 AM,39.2,35.6,87,30.30,10.0,SW,5.8,-,N/A,,Clear,230,2012-10-01 13:55:00
8:15 AM,42.8,37.4,81,30.30,10.0,WSW,4.6,-,N/A,,Clear,240,2012-10-01 14:15:00
8:55 AM,44.6,39.2,81,30.29,10.0,Calm,Calm,-,N/A,,Clear,0,2012-10-01 14:55:00
9:15 AM,46.4,39.2,76,30.28,10.0,SSE,3.5,-,N/A,,Clear,160,2012-10-01 15:15:00
9:35 AM,46.4,39.2,76,30.28,10.0,SSE,4.6,-,N/A,,Clear,160,2012-10-01 15:35:00
9:55 AM,48.2,41.0,76,30.28,10.0,South,4.6,-,N/A,,Clear,170,2012-10-01 15:55:00
10:15 AM,53.6,42.8,67,30.28,10.0,South,5.8,-,N/A,,Clear,170,2012-10-01 16:15:00
10:35 AM,55.4,42.8,63,30.27,10.0,South,6.9,-,N/A,,Clear,180,2012-10-01 16:35:00
10:55 AM,55.4,42.8,63,30.26,10.0,SE,10.4,-,N/A,,Clear,140,2012-10-01 16:55:00
11:15 AM,57.2,42.8,59,30.25,10.0,SE,10.4,-,N/A,,Clear,140,2012-10-01 17:15:00
11:35 AM,60.8,39.2,45,30.23,10.0,SSE,11.5,-,N/A,,Clear,150,2012-10-01 17:35:00
11:55 AM,60.8,37.4,42,30.23,10.0,South,10.4,-,N/A,,Clear,180,2012-10-01 17:55:00
12:15 PM,62.6,37.4,39,30.21,10.0,South,10.4,19.6,N/A,,Clear,170,2012-10-01 18:15:00
12:55 PM,64.4,35.6,34,30.18,10.0,South,6.9,16.1,N/A,,Clear,190,2012-10-01 18:55:00
1:15 PM,64.4,35.6,34,30.16,10.0,SSW,10.4,-,N/A,,Clear,200,2012-10-01 19:15:00
1:35 PM,66.2,37.4,35,30.14,10.0,SSW,9.2,-,N/A,,Clear,210,2012-10-01 19:35:00
1:55 PM,66.2,35.6,32,30.13,10.0,South,11.5,21.9,N/A,,Clear,190,2012-10-01 19:55:00
2:15 PM,68.0,35.6,30,30.12,10.0,South,12.7,17.3,N/A,,Clear,190,2012-10-01 20:15:00
2:35 PM,69.8,35.6,28,30.11,10.0,SSW,10.4,16.1,N/A,,Clear,200,2012-10-01 20:35:00
2:55 PM,69.8,35.6,28,30.09,10.0,South,10.4,17.3,N/A,,Clear,190,2012-10-01 20:55:00
3:15 PM,69.8,35.6,28,30.07,10.0,South,13.8,-,N/A,,Clear,190,2012-10-01 21:15:00
3:35 PM,69.8,33.8,27,30.06,10.0,South,12.7,17.3,N/A,,Clear,170,2012-10-01 21:35:00
3:55 PM,69.8,33.8,27,30.04,10.0,South,12.7,17.3,N/A,,Clear,170,2012-10-01 21:55:00
4:15 PM,69.8,33.8,27,30.03,10.0,South,15.0,20.7,N/A,,Clear,190,2012-10-01 22:15:00
4:35 PM,69.8,33.8,27,30.02,10.0,South,16.1,-,N/A,,Clear,180,2012-10-01 22:35:00
4:55 PM,69.8,32.0,25,30.00,10.0,South,15.0,-,N/A,,Clear,190,2012-10-01 22:55:00
5:15 PM,69.8,33.8,27,29.98,10.0,South,15.0,-,N/A,,Clear,190,2012-10-01 23:15:00
5:35 PM,69.8,33.8,27,29.97,10.0,South,15.0,-,N/A,,Clear,180,2012-10-01 23:35:00
5:55 PM,69.8,33.8,27,29.96,10.0,South,10.4,-,N/A,,Clear,180,2012-10-01 23:55:00
6:15 PM,66.2,33.8,30,29.95,10.0,South,9.2,-,N/A,,Clear,180,2012-10-02 00:15:00
6:35 PM,64.4,33.8,32,29.94,10.0,South,8.1,-,N/A,,Clear,170,2012-10-02 00:35:00
6:55 PM,62.6,33.8,34,29.94,10.0,South,9.2,-,N/A,,Clear,170,2012-10-02 00:55:00
7:15 PM,60.8,33.8,36,29.93,10.0,SSE,8.1,-,N/A,,Clear,160,2012-10-02 01:15:00
7:35 PM,59.0,33.8,39,29.92,10.0,South,9.2,-,N/A,,Clear,170,2012-10-02 01:35:00
7:55 PM,60.8,33.8,36,29.91,10.0,South,10.4,-,N/A,,Clear,170,2012-10-02 01:55:00
8:15 PM,60.8,32.0,34,29.90,10.0,South,11.5,-,N/A,,Clear,180,2012-10-02 02:15:00
8:35 PM,59.0,32.0,36,29.89,10.0,South,10.4,-,N/A,,Clear,180,2012-10-02 02:35:00
8:55 PM,57.2,32.0,38,29.88,10.0,South,11.5,-,N/A,,Clear,190,2012-10-02 02:55:00
9:15 PM,60.8,32.0,34,29.86,10.0,South,13.8,-,N/A,,Clear,190,2012-10-02 03:15:00
9:35 PM,60.8,30.2,31,29.85,10.0,South,13.8,-,N/A,,Clear,190,2012-10-02 03:35:00
9:55 PM,60.8,30.2,31,29.84,10.0,South,15.0,-,N/A,,Clear,190,2012-10-02 03:55:00
10:15 PM,59.0,30.2,34,29.83,10.0,South,13.8,-,N/A,,Clear,190,2012-10-02 04:15:00
10:35 PM,59.0,30.2,34,29.82,10.0,South,15.0,-,N/A,,Clear,190,2012-10-02 04:35:00
10:55 PM,60.8,30.2,31,29.81,10.0,South,15.0,-,N/A,,Clear,180,2012-10-02 04:55:00
11:15 PM,59.0,30.2,34,29.80,10.0,South,15.0,-,N/A,,Clear,190,2012-10-02 05:15:00
11:35 PM,59.0,28.4,31,29.79,10.0,South,18.4,-,N/A,,Clear,180,2012-10-02 05:35:00
11:55 PM,57.2,28.4,33,29.77,10.0,South,16.1,-,N/A,,Clear,180,2012-10-02 05:55:00